KUIPER-00229

导读

KUIPER-00229(NORAD编号68578)是亚马逊Amazon Leo(原Kuiper)低轨卫星互联网星座的组网卫星之一。该星座前身为2018年亚马逊提出的Kuiper计划,2025年11月更名为Amazon Leo,旨在为全球网络覆盖不足地区提供高速低延迟卫星互联网服务。一期规划部署3232颗卫星,分布在590-630km近地轨道,KUIPER-00229属于组网批量发射的卫星,将和其他卫星共同构建全球低轨宽带通信网络,服务个人、企业及政府用户。

Basic Information
目录编号:
68578
目录名称:
KUIPER-00229
国际标识:
2026-072F
轨道中心:
EARTH
卫星名称:
KUIPER-00229
卫星全名:
KUIPER-00229
卫星状态:
在轨 (已飞行70 天)
发射日期:
2026-04-04 UTC
国别 :
美国 (US)
星等 :
--
Orbit Information
数据来源 国际轨道数据 AOE轨道数据
星历时间 2026-06-10T18:26:07+0800
2天前
查看轨道信息
2026-06-10T04:00:00+0800
3天前
查看轨道信息
半长轴 7018.815km 7019.022km
偏心率 0.0002913 0.0000036
轨道倾角 51.902° 51.901°
近地点辐角 233.428° 126.694°
升交点赤经 225.471° 228.118°
平近点角 126.641° 274.432°
近地点 638.633km 640.859km
远地点 642.723km 640.911km
周期 97.534分钟 97.538分钟
每日圈数 14.764106 14.763453
Detailed Information
使用方式:
暂无
2D Orbit Map
3D Orbit Map
Orbit Altitude Analysis Chart
Orbit Inclination Analysis Chart
Orbit Comprehensive Analysis Chart
View Comprehensive Chart